STARLINK-11561, 62908

Orbit data source: Space-Track

STARLINK-11561, 62908 is a payload satellite owned by SpaceX/Seattle (US) in LEO that was launched on Sat, 08 Feb 2025 UTC via an FALCON 9 launch vehicle from the Air Force Eastern Test Range (AFETR). Payload-class satellites include a variety of spacecraft equipped with specific instruments for various scientific and technological missions. These include communications satellites like Starlink; space stations such as the ISS; scientific satellites like the Hubble; Earth observation satellites from companies like Planet Labs, Umbra, and HawkEye 360; GPS; miniature CubeSats for education and research; and military/defense satellites.

Loading next visibility...
Identifier
62908, 2025-027B
Orbit
LEO
Country
Flag of USUS
Related business
Manufacturer
SpaceX/Seattle
Mission
Operational Commercial Communications
Bus & Motor
STARLINK V2MD, Unknown motor
Mass
960 kg wet, ~910 kg dry
Launch date (UTC)
2025-02-08 (1 year ago)
Launch vehicle
FALCON 9
Launch site
Air Force Eastern Test Range (AFETR)
Object type
Payload
Rocket body
Debris
Shape & HBR
Box + 2 Pan, 18.1 m
Radar Cross Section
36.964 m², Large (>1 m²)

Expand to show TLE details & history
Last TLE update: 1 day ago

TLE from 1 day ago
0 STARLINK-11561
1 62908U 25027B   26128.89397959  .00200145  00000-0  15233-2 0  9997
2 62908  43.0007 344.5086 0001174 243.5832 116.4915 15.70882343 72626
Epoch: 2026-05-08T21:27Z
TLE epoch observation values (Epoch: 2026-05-08T21:27:19.836Z)
Latitude
-0.00004°
Longitude
155.95668°
Altitude
356.498 km
Speed
7.697 km/s
True Right ascension
22h 58m 02s
True Declination
0° 00' 00"
Sunlit
Object was in daylight at epoch
Visualization orbit readout
Latitude
Unknown
Longitude
Unknown
Altitude
Unknown
Speed
Unknown
Apparent Right ascension
Unknown
Apparent Declination
Unknown
Sunlit
N/A
Visualization observer readout
Local Sidereal Time
07:54:09
Azimuth
Unknown
Elevation
Unknown
Doppler factor
Unknown
Orbital elements
Apogee altitude
359.146 km
Perigee altitude
357.565 km
Semi-major axis
6,736.493 km
Eccentricity
0.00012
Inclination
43.0007°
RAAN
344.5086°
Arg. of periapsis
243.5832°
True anomaly
116.50354°
Mean anomaly
116.4915°
Eccentric anomaly
116.49752°
Mean motion
3.92548 °/min
Orbital period
91.71 mins
BSTAR
0.0015233
Loading maneuver chart data...
Computing Atmospheric mass density...
Loading historical data...
Loading historical data...
Loading historical data...
Loading historical data...
Loading historical data...
Loading historical data...
Loading historical data...

Documentation

Showing up to 5 results
|